Simultaneous Nadir Overpasses (SNOs) Predictions

Prediction of SNOs between METOP-A and NOAA-19 Satellite Orbit:

Table of predicted SNOs for the next 14.0 days since TLE Epoch: 2/15/2019
Index Date (METOP-A) Time (METOP-A) Lat,Lon (METOP-A) SZA (METOP-A ) Date (NOAA-19) Time (NOAA-19) Lat,Lon (NOAA-19) SZA (NOAA-19 ) Distance(km) Time Diff (sec)
1 02/16/2019 01:50:44 79.41, 163.69 91.93 02/16/2019 01:49:31 79.42, 162.84 91.91 17.40 73
2 02/16/2019 02:41:26 -79.37, -29.29 88.14 02/16/2019 02:40:34 -79.35, -29.25 88.17 2.48 52
3 02/16/2019 03:32:07 79.35, 137.92 91.83 02/16/2019 03:31:30 79.36, 137.88 91.84 1.48 37
4 02/16/2019 04:22:48 -79.35, -54.80 88.19 02/16/2019 04:22:35 -79.35, -54.77 88.19 0.65 13
5 02/16/2019 05:13:28 79.37, 112.68 91.83 02/16/2019 05:13:30 79.33, 112.63 91.79 3.64 2
6 02/16/2019 06:04:10 -79.32, -80.29 88.24 02/16/2019 06:04:36 -79.35, -80.28 88.21 2.88 26
7 02/16/2019 06:54:50 79.34, 87.18 91.78 02/16/2019 06:55:31 79.34, 87.12 91.77 1.61 41
8 02/16/2019 07:45:31 -79.34,-105.54 88.25 02/16/2019 07:46:36 -79.32,-105.53 88.26 1.78 65
9 02/16/2019 08:36:20 79.03, 59.66 91.40 02/16/2019 08:37:23 79.06, 64.02 91.53 92.19 63
10 02/26/2019 22:50:07 -79.60, 30.17 91.78 02/26/2019 22:49:00 -79.57, 26.89 91.89 65.95 67
11 02/26/2019 23:40:53 79.41,-164.00 87.99 02/26/2019 23:39:49 79.38,-163.97 87.96 2.98 64
12 02/27/2019 00:31:35 -79.37, 3.07 92.07 02/27/2019 00:30:55 -79.40, 3.07 92.05 3.35 40
13 02/27/2019 01:22:15 79.39, 170.50 87.94 02/27/2019 01:21:50 79.38, 170.51 87.93 0.40 25
14 02/27/2019 02:12:56 -79.39, -22.17 92.08 02/27/2019 02:12:55 -79.37, -22.18 92.09 1.19 1
15 02/27/2019 03:03:37 79.36, 145.00 87.88 02/27/2019 03:03:51 79.39, 144.99 87.91 2.32 14
16 02/27/2019 03:54:18 -79.36, -47.68 92.14 02/27/2019 03:54:56 -79.38, -47.70 92.12 1.52 38
17 02/27/2019 04:44:58 79.38, 119.76 87.87 02/27/2019 04:45:51 79.36, 119.75 87.86 2.27 53




NCC Satellite Simultaneous Nadir Overpasses (SNOs) Prediction Service
